Location: Bijele Vode
(45.2833°N, 16.2000°E)
Time: 18:24:37
(UTC+00:00)

Sich 1 Rocket - Pass Details

Date: 19 June 2021
Orbit: 616 x 652 km, 82.5° (Epoch: 29 July)

Event Time Altitude Azimuth Distance (km) Brightness Sun altitude
Rises 19:23:13 0° 335° (NNW) 2,901 8.5 -5.9°
Reaches altitude 10° 19:26:01 10° 317° (NW) 1,988 8.0 -6.2°
Maximum altitude 19:29:00 18° 274° (W) 1,522 6.3 -6.6°
Drops below altitude 10° 19:31:57 10° 231° (SW) 1,978 6.3 -7.0°
Sets 19:34:44 0° 213° (SSW) 2,881 6.9 -7.4°
